When you browse on this site, cookies collect data to enhance your experience and personalize the content and advertising you see.
Visit our Privacy Policy to learn more. By continuing to use the site, you agree to this use of cookies and data.
  • en Suisse
  • Liste des pays
  • À 7 jours
  • Température de l'eau
  • Carte météo
  • Widgets météo
  • user-avatar
    Se connecter

    Météo par heure à Ichgl

    Ce jour, 25 Février, Mardi

    Heure Température Précipitation Vent Pression Humidité
    00:00 -2°C° 0 mm 1 m/s 569 mmHg 68%
    01:00 -5°C° 0 mm 2 m/s 568 mmHg 66%
    02:00 -5°C° 0 mm 2 m/s 567 mmHg 65%
    03:00 -6°C° 0 mm 2 m/s 567 mmHg 65%
    04:00 -6°C° 0 mm 2 m/s 566 mmHg 64%
    05:00 -4°C° 0 mm 1 m/s 566 mmHg 65%
    06:00 -6°C° 0 mm 1 m/s 566 mmHg 66%
    07:00 -6°C° 0 mm 2 m/s 566 mmHg 65%
    08:00 -5°C° 0 mm 2 m/s 566 mmHg 70%
    09:00 -2°C° 0 mm 1 m/s 567 mmHg 76%
    10:00 0°C° 0 mm 1 m/s 567 mmHg 81%
    11:00 0°C° 0 mm 1 m/s 567 mmHg 85%
    12:00 0°C° 0 mm 1 m/s 566 mmHg 89%
    13:00 0°C° 0 mm 1 m/s 566 mmHg 93%
    14:00 0°C° 0.1 mm 1 m/s 565 mmHg 94%
    15:00 -1°C° 0.1 mm 1 m/s 565 mmHg 94%
    16:00 -1°C° 0.1 mm 1 m/s 564 mmHg 94%
    17:00 -2°C° 0.1 mm 1 m/s 564 mmHg 95%
    18:00 -3°C° 0.1 mm 1 m/s 563 mmHg 95%
    19:00 -3°C° 0.1 mm 1 m/s 563 mmHg 95%
    20:00 -4°C° 0.2 mm 1 m/s 562 mmHg 95%
    21:00 -7°C° 0.2 mm 2 m/s 561 mmHg 94%
    22:00 -7°C° 0.2 mm 2 m/s 561 mmHg 93%
    23:00 -8°C° 0.5 mm 2 m/s 560 mmHg 93%

    Demain, 26 Février, Mercredi

    Heure Température Précipitation Vent Pression Humidité
    00:00 -8°C° 0.5 mm 2 m/s 559 mmHg 94%
    01:00 -8°C° 0.5 mm 2 m/s 559 mmHg 94%
    02:00 -8°C° 1.1 mm 2 m/s 559 mmHg 95%
    03:00 -9°C° 1.1 mm 2 m/s 558 mmHg 95%
    04:00 -9°C° 1.1 mm 2 m/s 558 mmHg 96%
    05:00 -10°C° 0.9 mm 2 m/s 557 mmHg 95%
    06:00 -10°C° 0.9 mm 2 m/s 557 mmHg 94%
    07:00 -12°C° 0.9 mm 2 m/s 557 mmHg 93%
    08:00 -12°C° 0.3 mm 2 m/s 557 mmHg 82%
    09:00 -12°C° 0.3 mm 2 m/s 557 mmHg 71%
    10:00 -10°C° 0.3 mm 2 m/s 557 mmHg 59%
    11:00 -12°C° 0.3 mm 3 m/s 557 mmHg 64%
    12:00 -13°C° 0.3 mm 3 m/s 557 mmHg 69%
    13:00 -14°C° 0.3 mm 4 m/s 557 mmHg 74%
    14:00 -15°C° 0.5 mm 4 m/s 557 mmHg 76%
    15:00 -15°C° 0.5 mm 4 m/s 557 mmHg 79%
    16:00 -15°C° 0.5 mm 4 m/s 557 mmHg 82%
    17:00 -15°C° 0.6 mm 3 m/s 557 mmHg 86%
    18:00 -16°C° 0.6 mm 3 m/s 558 mmHg 90%
    19:00 -16°C° 0.6 mm 2 m/s 558 mmHg 94%
    20:00 -16°C° 0.9 mm 2 m/s 559 mmHg 94%
    21:00 -15°C° 0.9 mm 2 m/s 559 mmHg 95%
    22:00 -15°C° 0.9 mm 2 m/s 560 mmHg 95%
    23:00 -15°C° 0.6 mm 2 m/s 561 mmHg 95%

    Après-demain, 27 Février, Jeudi

    Heure Température Précipitation Vent Pression Humidité
    00:00 -15°C° 0.6 mm 2 m/s 561 mmHg 95%
    01:00 -16°C° 0.6 mm 2 m/s 561 mmHg 95%
    02:00 -16°C° 0.2 mm 2 m/s 561 mmHg 96%
    03:00 -15°C° 0.2 mm 1 m/s 561 mmHg 96%
    04:00 -16°C° 0.2 mm 1 m/s 560 mmHg 96%
    05:00 -16°C° 0.1 mm 1 m/s 560 mmHg 95%
    06:00 -19°C° 0.1 mm 2 m/s 560 mmHg 94%
    07:00 -19°C° 0.1 mm 2 m/s 560 mmHg 92%
    08:00 -17°C° 0 mm 2 m/s 561 mmHg 85%
    09:00 -15°C° 0 mm 2 m/s 562 mmHg 78%
    10:00 -15°C° 0 mm 3 m/s 562 mmHg 71%
    11:00 -13°C° 0 mm 3 m/s 562 mmHg 68%
    12:00 -12°C° 0 mm 4 m/s 562 mmHg 64%
    13:00 -11°C° 0 mm 4 m/s 562 mmHg 60%
    14:00 -13°C° 0.5 mm 5 m/s 561 mmHg 70%
    15:00 -13°C° 0.5 mm 5 m/s 560 mmHg 79%
    16:00 -14°C° 0.5 mm 5 m/s 558 mmHg 88%
    17:00 -14°C° 0.9 mm 5 m/s 558 mmHg 89%
    18:00 -15°C° 0.9 mm 5 m/s 558 mmHg 89%
    19:00 -15°C° 0.9 mm 5 m/s 558 mmHg 89%
    20:00 -15°C° 0.6 mm 5 m/s 558 mmHg 89%
    21:00 -16°C° 0.6 mm 4 m/s 558 mmHg 90%
    22:00 -16°C° 0.6 mm 4 m/s 558 mmHg 90%
    23:00 -16°C° 1.1 mm 4 m/s 558 mmHg 92%

    28 Février, Vendredi

    Heure Température Précipitation Vent Pression Humidité
    00:00 -16°C° 1.1 mm 4 m/s 559 mmHg 93%
    01:00 -16°C° 1.1 mm 4 m/s 560 mmHg 94%
    02:00 -16°C° 1.1 mm 4 m/s 561 mmHg 95%
    03:00 -16°C° 1.1 mm 4 m/s 561 mmHg 95%
    04:00 -16°C° 1.1 mm 4 m/s 562 mmHg 96%
    05:00 -16°C° 0.6 mm 3 m/s 563 mmHg 95%
    06:00 -16°C° 0.6 mm 3 m/s 563 mmHg 95%
    07:00 -17°C° 0.6 mm 3 m/s 563 mmHg 95%
    08:00 -15°C° 0.1 mm 2 m/s 564 mmHg 90%
    09:00 -14°C° 0.1 mm 2 m/s 565 mmHg 84%
    10:00 -13°C° 0.1 mm 2 m/s 566 mmHg 78%
    11:00 -13°C° 0 mm 2 m/s 567 mmHg 70%
    12:00 -12°C° 0 mm 2 m/s 567 mmHg 61%
    13:00 -10°C° 0 mm 2 m/s 568 mmHg 52%
    14:00 -9°C° 0 mm 1 m/s 568 mmHg 52%
    15:00 -8°C° 0 mm 1 m/s 568 mmHg 51%
    16:00 -8°C° 0 mm 1 m/s 568 mmHg 50%
    17:00 -9°C° 0 mm 1 m/s 567 mmHg 51%
    18:00 -11°C° 0 mm 1 m/s 566 mmHg 52%
    19:00 -15°C° 0 mm 2 m/s 565 mmHg 53%
    20:00 -14°C° 0 mm 2 m/s 566 mmHg 52%
    21:00 -13°C° 0 mm 2 m/s 566 mmHg 51%
    22:00 -13°C° 0 mm 2 m/s 567 mmHg 51%
    23:00 -12°C° 0 mm 2 m/s 567 mmHg 54%

    29 Février, Samedi

    Heure Température Précipitation Vent Pression Humidité
    00:00 -12°C° 0 mm 2 m/s 567 mmHg 58%
    01:00 -12°C° 0 mm 2 m/s 567 mmHg 62%
    02:00 -10°C° 0 mm 2 m/s 567 mmHg 64%
    03:00 -10°C° 0 mm 2 m/s 567 mmHg 66%
    04:00 -10°C° 0 mm 2 m/s 567 mmHg 68%
    05:00 -10°C° 0 mm 2 m/s 566 mmHg 67%
    06:00 -10°C° 0 mm 2 m/s 566 mmHg 65%
    07:00 -10°C° 0 mm 2 m/s 566 mmHg 64%
    08:00 -9°C° 0 mm 3 m/s 566 mmHg 67%
    09:00 -8°C° 0 mm 3 m/s 567 mmHg 70%
    10:00 -6°C° 0 mm 3 m/s 567 mmHg 73%
    11:00 -6°C° 0 mm 3 m/s 567 mmHg 76%
    12:00 -5°C° 0 mm 3 m/s 566 mmHg 79%
    13:00 -5°C° 0 mm 4 m/s 566 mmHg 82%
    14:00 -5°C° 0 mm 4 m/s 565 mmHg 81%
    15:00 -7°C° 0 mm 4 m/s 565 mmHg 79%
    16:00 -7°C° 0 mm 4 m/s 564 mmHg 78%
    17:00 -9°C° 0 mm 4 m/s 564 mmHg 78%
    18:00 -11°C° 0 mm 4 m/s 563 mmHg 78%
    19:00 -14°C° 0 mm 4 m/s 562 mmHg 78%
    20:00 -13°C° 0 mm 3 m/s 562 mmHg 79%
    21:00 -13°C° 0 mm 3 m/s 563 mmHg 81%
    22:00 -14°C° 0 mm 3 m/s 563 mmHg 82%
    23:00 -12°C° 0.2 mm 2 m/s 563 mmHg 86%

    1 Mars, Dimanche

    Heure Température Précipitation Vent Pression Humidité
    00:00 -10°C° 0.2 mm 1 m/s 563 mmHg 91%
    01:00 -10°C° 0.2 mm 1 m/s 564 mmHg 95%
    02:00 -10°C° 0.3 mm 1 m/s 563 mmHg 95%
    03:00 -10°C° 0.3 mm 1 m/s 563 mmHg 96%
    04:00 -10°C° 0.3 mm 1 m/s 563 mmHg 97%
    05:00 -10°C° 0.3 mm 1 m/s 563 mmHg 96%
    06:00 -10°C° 0.3 mm 1 m/s 563 mmHg 96%
    07:00 -10°C° 0.3 mm 1 m/s 563 mmHg 96%
    08:00 -12°C° 0.2 mm 2 m/s 563 mmHg 94%
    09:00 -10°C° 0.2 mm 2 m/s 563 mmHg 91%
    10:00 -9°C° 0.2 mm 2 m/s 564 mmHg 89%
    11:00 -9°C° 0.1 mm 2 m/s 564 mmHg 87%
    12:00 -8°C° 0.1 mm 2 m/s 564 mmHg 84%
    13:00 -8°C° 0.1 mm 2 m/s 564 mmHg 81%
    14:00 -7°C° 0 mm 1 m/s 563 mmHg 80%
    15:00 -7°C° 0 mm 1 m/s 563 mmHg 80%
    16:00 -6°C° 0 mm 1 m/s 563 mmHg 79%
    17:00 -8°C° 0 mm 1 m/s 562 mmHg 81%
    18:00 -10°C° 0 mm 1 m/s 561 mmHg 84%
    19:00 -14°C° 0 mm 2 m/s 560 mmHg 87%
    20:00 -13°C° 0 mm 2 m/s 561 mmHg 85%
    21:00 -12°C° 0 mm 2 m/s 561 mmHg 84%
    22:00 -12°C° 0 mm 2 m/s 562 mmHg 83%
    23:00 -12°C° 0 mm 2 m/s 562 mmHg 82%
    Voir plus